Regional Weather Roundup
Issued by NWS

Home | Current Version | Previous Version | Graphics & Text | Print | Product List | Glossary On
Versions: 1 2 3 4 5 6 7 8 9 10 11 12 13 14 15 16 17 18 19 20 21 22 23 24 25 26 27 28 29 30 31 32 33 34 35 36 37 38 39 40 41 42 43 44 45 46 47 48 49 50
000
ASUS43 KLMK 251610
RWRKY
KENTUCKY REGIONAL WEATHER ROUNDUP
NATIONAL WEATHER SERVICE LOUISVILLE KY
1100 AM EST SUN FEB 25 2018

NOTE "FAIR" INDICATES FEW OR NO CLOUDS BELOW 12,000 FEET
WITH NO SIGNIFICANT WEATHER AND/OR OBSTRUCTIONS TO VISIBILITY.

KYZ001>023-026-027-061>063-070>075-251700-
WESTERN AND SOUTH CENTRAL KENTUCKY

CITY           SKY/WX    TMP DP  RH WIND       PRES   REMARKS
PADUCAH        FAIR      46  30  53 NW7       30.14R
HENDERSON      FAIR      44  34  67 W12       30.14R
OWENSBORO      FAIR      45  34  65 W12       30.14R
HOPKINSVILLE   FAIR      47  37  69 W8        30.13R
BOWLING GREEN  FAIR      49  40  71 W8        30.14R
GLASGOW        FAIR      48  40  74 W8        30.13R
$$

KYZ024-025-028>034-038-045-046-053-251700-
NORTH CENTRAL KENTUCKY

CITY           SKY/WX    TMP DP  RH WIND       PRES   REMARKS
LOUISVILLE/SDF PTSUNNY   46  34  62 W13       30.09R
LOUISVILLE/LOU FAIR      46  38  73 W10       30.09R
FORT KNOX      FAIR      44  34  67 W14       30.11R
$$

KYZ035>037-039>044-047>052-055>060-089>105-251700-
NORTHEAST KENTUCKY

CITY           SKY/WX    TMP DP  RH WIND       PRES   REMARKS
LEXINGTON      FAIR      49  39  68 W10       30.06R
COVINGTON      CLOUDY    46  37  71 SW12      30.03R
FRANKFORT      FAIR      48  36  63 W6        30.06R
$$

KYZ054-064>069-076>088-106>120-251700-
SOUTHEAST KENTUCKY

CITY           SKY/WX    TMP DP  RH WIND       PRES   REMARKS
JACKSON        PTSUNNY   54  48  80 W6        30.05R
LONDON         FAIR      54  47  77 W10       30.06R
SOMERSET       FAIR      50  37  62 W9        30.12R
MIDDLESBORO    FAIR      56  50  79 CALM      30.09R
MONTICELLO     FAIR      50  43  77 NW6       30.13R
$$





USA.gov is the U.S. government's official web portal to all federal, state and local government web resources and services.